• In Germany
  • List of Countries
  • For 7 days
  • Water Temperature
  • Satellite Maps
  • Weather Map
  • Weather Widgets
  • user-avatar
    Login

    Hourly Weather Karwia

    Today, 23 October, Monday

    Time Temperature Precipitation Wind Pressure Humidity
    00:00 +9°C° 0.1 mm 3 mps 758 mmHg 94%
    01:00 +9°C° 0.1 mm 2 mps 758 mmHg 95%
    02:00 +8°C° 0 mm 2 mps 758 mmHg 95%
    03:00 +8°C° 0 mm 2 mps 758 mmHg 96%
    04:00 +8°C° 0 mm 2 mps 758 mmHg 96%
    05:00 +8°C° 0 mm 2 mps 758 mmHg 96%
    06:00 +8°C° 0 mm 2 mps 759 mmHg 97%
    07:00 +8°C° 0 mm 2 mps 759 mmHg 97%
    08:00 +9°C° 0 mm 2 mps 759 mmHg 93%
    09:00 +10°C° 0 mm 2 mps 760 mmHg 89%
    10:00 +11°C° 0 mm 3 mps 760 mmHg 86%
    11:00 +11°C° 0.1 mm 3 mps 760 mmHg 84%
    12:00 +11°C° 0.1 mm 4 mps 761 mmHg 83%
    13:00 +12°C° 0.1 mm 5 mps 761 mmHg 82%
    14:00 +10°C° 0 mm 5 mps 761 mmHg 84%
    15:00 +10°C° 0 mm 5 mps 762 mmHg 85%
    16:00 +9°C° 0 mm 5 mps 762 mmHg 87%
    17:00 +9°C° 0 mm 5 mps 763 mmHg 88%
    18:00 +8°C° 0 mm 6 mps 763 mmHg 89%
    19:00 +8°C° 0 mm 6 mps 764 mmHg 91%
    20:00 +7°C° 0 mm 6 mps 764 mmHg 91%
    21:00 +7°C° 0 mm 6 mps 765 mmHg 92%
    22:00 +7°C° 0 mm 5 mps 765 mmHg 92%
    23:00 +7°C° 0 mm 5 mps 765 mmHg 92%

    Tomorrow, 24 October, Tuesday

    Time Temperature Precipitation Wind Pressure Humidity
    00:00 +7°C° 0 mm 5 mps 766 mmHg 91%
    01:00 +7°C° 0 mm 5 mps 766 mmHg 91%
    02:00 +7°C° 0 mm 5 mps 766 mmHg 90%
    03:00 +7°C° 0 mm 5 mps 767 mmHg 90%
    04:00 +7°C° 0 mm 5 mps 767 mmHg 90%
    05:00 +7°C° 0 mm 5 mps 767 mmHg 90%
    06:00 +7°C° 0 mm 5 mps 768 mmHg 90%
    07:00 +7°C° 0 mm 5 mps 768 mmHg 90%
    08:00 +7°C° 0 mm 6 mps 768 mmHg 87%
    09:00 +7°C° 0 mm 6 mps 768 mmHg 85%
    10:00 +8°C° 0 mm 6 mps 768 mmHg 82%
    11:00 +8°C° 0 mm 6 mps 768 mmHg 80%
    12:00 +9°C° 0 mm 5 mps 768 mmHg 78%
    13:00 +9°C° 0 mm 5 mps 768 mmHg 76%
    14:00 +9°C° 0 mm 5 mps 768 mmHg 76%
    15:00 +9°C° 0 mm 6 mps 768 mmHg 76%
    16:00 +9°C° 0 mm 6 mps 768 mmHg 77%
    17:00 +9°C° 0 mm 6 mps 768 mmHg 77%
    18:00 +8°C° 0 mm 6 mps 768 mmHg 78%
    19:00 +8°C° 0 mm 6 mps 768 mmHg 78%
    20:00 +8°C° 0 mm 7 mps 768 mmHg 78%
    21:00 +8°C° 0 mm 7 mps 768 mmHg 78%
    22:00 +8°C° 0 mm 7 mps 768 mmHg 78%
    23:00 +8°C° 0 mm 7 mps 768 mmHg 79%

    Day after tomorrow, 25 October, Wednesday

    Time Temperature Precipitation Wind Pressure Humidity
    00:00 +8°C° 0 mm 7 mps 768 mmHg 80%
    01:00 +6°C° 0 mm 7 mps 767 mmHg 81%
    02:00 +6°C° 0.2 mm 8 mps 767 mmHg 82%
    03:00 +6°C° 0.2 mm 8 mps 767 mmHg 84%
    04:00 +6°C° 0.2 mm 9 mps 766 mmHg 85%
    05:00 +6°C° 1 mm 9 mps 765 mmHg 86%
    06:00 +7°C° 1 mm 10 mps 765 mmHg 87%
    07:00 +7°C° 1 mm 11 mps 764 mmHg 87%
    08:00 +7°C° 2 mm 11 mps 764 mmHg 87%
    09:00 +7°C° 2 mm 12 mps 763 mmHg 88%
    10:00 +8°C° 2 mm 12 mps 763 mmHg 88%
    11:00 +8°C° 0.5 mm 11 mps 762 mmHg 88%
    12:00 +9°C° 0.5 mm 11 mps 762 mmHg 88%
    13:00 +11°C° 0.5 mm 10 mps 761 mmHg 89%
    14:00 +11°C° 0.9 mm 10 mps 761 mmHg 90%
    15:00 +12°C° 0.9 mm 10 mps 761 mmHg 90%
    16:00 +13°C° 0.9 mm 10 mps 760 mmHg 91%
    17:00 +13°C° 0.6 mm 10 mps 761 mmHg 91%
    18:00 +12°C° 0.6 mm 9 mps 761 mmHg 90%
    19:00 +12°C° 0.6 mm 9 mps 761 mmHg 90%
    20:00 +12°C° 0 mm 8 mps 762 mmHg 91%
    21:00 +11°C° 0 mm 8 mps 762 mmHg 92%
    22:00 +10°C° 0 mm 8 mps 762 mmHg 92%
    23:00 +10°C° 0 mm 8 mps 763 mmHg 92%

    26 October, Thursday

    Time Temperature Precipitation Wind Pressure Humidity
    00:00 +10°C° 0 mm 8 mps 763 mmHg 92%
    01:00 +10°C° 0 mm 8 mps 763 mmHg 92%
    02:00 +10°C° 0 mm 8 mps 763 mmHg 92%
    03:00 +10°C° 0 mm 8 mps 763 mmHg 92%
    04:00 +10°C° 0 mm 8 mps 763 mmHg 92%
    05:00 +10°C° 0 mm 8 mps 763 mmHg 91%
    06:00 +10°C° 0 mm 8 mps 763 mmHg 90%
    07:00 +10°C° 0 mm 8 mps 763 mmHg 89%
    08:00 +11°C° 0 mm 8 mps 762 mmHg 88%
    09:00 +11°C° 0 mm 8 mps 762 mmHg 86%
    10:00 +11°C° 0 mm 9 mps 762 mmHg 85%
    11:00 +11°C° 0.1 mm 9 mps 762 mmHg 84%
    12:00 +11°C° 0.1 mm 9 mps 762 mmHg 83%
    13:00 +11°C° 0.1 mm 9 mps 761 mmHg 82%
    14:00 +11°C° 0.2 mm 9 mps 761 mmHg 82%
    15:00 +11°C° 0.2 mm 9 mps 761 mmHg 82%
    16:00 +11°C° 0.2 mm 9 mps 760 mmHg 82%
    17:00 +11°C° 0 mm 9 mps 760 mmHg 85%
    18:00 +10°C° 0 mm 9 mps 760 mmHg 87%
    19:00 +10°C° 0 mm 8 mps 760 mmHg 90%
    20:00 +10°C° 0 mm 8 mps 760 mmHg 90%
    21:00 +10°C° 0 mm 8 mps 760 mmHg 90%
    22:00 +10°C° 0 mm 8 mps 759 mmHg 90%
    23:00 +10°C° 0 mm 8 mps 759 mmHg 90%

    27 October, Friday

    Time Temperature Precipitation Wind Pressure Humidity
    00:00 +9°C° 0 mm 8 mps 759 mmHg 90%
    01:00 +9°C° 0 mm 8 mps 758 mmHg 90%
    02:00 +9°C° 0.1 mm 8 mps 757 mmHg 89%
    03:00 +10°C° 0.1 mm 8 mps 757 mmHg 88%
    04:00 +10°C° 0.1 mm 8 mps 756 mmHg 87%
    05:00 +9°C° 0.2 mm 8 mps 755 mmHg 87%
    06:00 +9°C° 0.2 mm 8 mps 755 mmHg 87%
    07:00 +9°C° 0.2 mm 8 mps 754 mmHg 88%
    08:00 +9°C° 0.3 mm 8 mps 754 mmHg 85%
    09:00 +8°C° 0.3 mm 9 mps 753 mmHg 83%
    10:00 +10°C° 0.3 mm 9 mps 753 mmHg 80%
    11:00 +10°C° 0.4 mm 9 mps 752 mmHg 79%
    12:00 +10°C° 0.4 mm 9 mps 752 mmHg 79%
    13:00 +10°C° 0.4 mm 9 mps 751 mmHg 78%
    14:00 +10°C° 0.2 mm 8 mps 751 mmHg 80%
    15:00 +10°C° 0.2 mm 8 mps 751 mmHg 82%
    16:00 +10°C° 0.2 mm 7 mps 751 mmHg 84%
    17:00 +9°C° 0.1 mm 7 mps 751 mmHg 86%
    18:00 +9°C° 0.1 mm 7 mps 751 mmHg 88%
    19:00 +9°C° 0.1 mm 7 mps 752 mmHg 90%
    20:00 +8°C° 0 mm 7 mps 752 mmHg 88%
    21:00 +8°C° 0 mm 7 mps 752 mmHg 87%
    22:00 +8°C° 0 mm 6 mps 752 mmHg 85%
    23:00 +8°C° 0 mm 6 mps 751 mmHg 84%

    28 October, Saturday

    Time Temperature Precipitation Wind Pressure Humidity
    00:00 +8°C° 0 mm 6 mps 751 mmHg 83%
    01:00 +8°C° 0 mm 7 mps 750 mmHg 82%
    02:00 +8°C° 0.4 mm 7 mps 749 mmHg 84%
    03:00 +6°C° 0.4 mm 7 mps 749 mmHg 85%
    04:00 +6°C° 0.4 mm 8 mps 748 mmHg 86%
    05:00 +6°C° 0.7 mm 7 mps 748 mmHg 87%
    06:00 +6°C° 0.7 mm 7 mps 747 mmHg 87%
    07:00 +6°C° 0.7 mm 7 mps 747 mmHg 88%
    08:00 +8°C° 0.4 mm 6 mps 746 mmHg 87%
    09:00 +8°C° 0.4 mm 6 mps 746 mmHg 85%
    10:00 +9°C° 0.4 mm 5 mps 746 mmHg 83%
    11:00 +8°C° 0.5 mm 5 mps 746 mmHg 84%
    12:00 +8°C° 0.5 mm 4 mps 747 mmHg 84%
    13:00 +9°C° 0.5 mm 3 mps 747 mmHg 84%
    14:00 +8°C° 0.1 mm 4 mps 747 mmHg 86%
    15:00 +8°C° 0.1 mm 4 mps 748 mmHg 87%
    16:00 +8°C° 0.1 mm 4 mps 748 mmHg 88%
    17:00 +7°C° 0 mm 4 mps 749 mmHg 89%
    18:00 +7°C° 0 mm 5 mps 750 mmHg 90%
    19:00 +7°C° 0 mm 5 mps 751 mmHg 91%
    20:00 +7°C° 0 mm 5 mps 752 mmHg 91%
    21:00 +7°C° 0 mm 5 mps 753 mmHg 91%
    22:00 +7°C° 0 mm 4 mps 753 mmHg 90%
    23:00 +7°C° 0 mm 4 mps 754 mmHg 91%

    29 October, Sunday

    Time Temperature Precipitation Wind Pressure Humidity
    00:00 +6°C° 0 mm 4 mps 754 mmHg 91%
    01:00 +6°C° 0 mm 4 mps 755 mmHg 92%
    02:00 +6°C° 0 mm 5 mps 755 mmHg 91%
    03:00 +6°C° 0 mm 5 mps 755 mmHg 91%
    04:00 +5°C° 0 mm 6 mps 755 mmHg 91%
    05:00 +5°C° 0 mm 6 mps 755 mmHg 91%
    06:00 +5°C° 0 mm 6 mps 755 mmHg 91%
    07:00 +5°C° 0 mm 6 mps 755 mmHg 91%
    08:00 +7°C° 0 mm 6 mps 755 mmHg 86%
    09:00 +8°C° 0 mm 7 mps 755 mmHg 80%
    10:00 +9°C° 0 mm 8 mps 754 mmHg 75%
    11:00 +9°C° 0.1 mm 8 mps 754 mmHg 77%
    12:00 +8°C° 0.1 mm 9 mps 753 mmHg 79%
    13:00 +8°C° 0.1 mm 10 mps 752 mmHg 81%
    14:00 +8°C° 0.2 mm 10 mps 751 mmHg 83%
    15:00 +8°C° 0.2 mm 11 mps 750 mmHg 84%
    16:00 +8°C° 0.2 mm 11 mps 750 mmHg 86%
    17:00 +8°C° 0.1 mm 11 mps 749 mmHg 82%
    18:00 +8°C° 0.1 mm 12 mps 749 mmHg 79%
    19:00 +8°C° 0.1 mm 12 mps 748 mmHg 76%
    20:00 +8°C° 0.2 mm 12 mps 747 mmHg 77%
    21:00 +8°C° 0.2 mm 13 mps 747 mmHg 79%
    22:00 +8°C° 0.2 mm 13 mps 746 mmHg 80%
    23:00 +8°C° 0.4 mm 13 mps 745 mmHg 76%
    Show more